LRI4LW NFNL-NFNA

Flight info

Callsign LRI4LW
Flight time N/A
Altitude 12000
Route BINEG1 BINEG DCT FNAWC
Aircraft B350/L-SBGRW/S

Departure

Time N/A
Airport Labasa Airport (NFNL)

Arrival

Time 2026-04-11 12:12
Airport Nausori International Airport (NFNA)
Time Latitude Longitude Altitude Speed Heading
2026-04-11 11:59 -17.33007 178.80383 4508 ft 270 kts 198°
2026-04-11 12:00 -17.34796 178.79784 4508 ft 270 kts 198°
2026-04-11 12:00 -17.36585 178.79181 4495 ft 270 kts 198°
2026-04-11 12:00 -17.38375 178.78573 4499 ft 271 kts 198°
2026-04-11 12:00 -17.40168 178.77966 4498 ft 270 kts 198°
2026-04-11 12:01 -17.41958 178.77360 4499 ft 270 kts 198°
2026-04-11 12:01 -17.43749 178.76753 4505 ft 270 kts 198°
2026-04-11 12:01 -17.45539 178.76146 4506 ft 270 kts 198°
2026-04-11 12:01 -17.47330 178.75539 4504 ft 271 kts 198°
2026-04-11 12:02 -17.49125 178.74931 4507 ft 271 kts 198°
2026-04-11 12:02 -17.50894 178.74331 4498 ft 271 kts 198°
2026-04-11 12:02 -17.52690 178.73722 4503 ft 271 kts 198°
2026-04-11 12:02 -17.54484 178.73113 4504 ft 271 kts 198°
2026-04-11 12:03 -17.56277 178.72505 4504 ft 271 kts 198°
2026-04-11 12:03 -17.58068 178.71897 4509 ft 271 kts 198°
2026-04-11 12:03 -17.59863 178.71288 4492 ft 271 kts 198°
2026-04-11 12:03 -17.61655 178.70680 4507 ft 271 kts 199°
2026-04-11 12:04 -17.63448 178.70071 4505 ft 271 kts 198°
2026-04-11 12:04 -17.65242 178.69462 4505 ft 271 kts 198°
2026-04-11 12:04 -17.67040 178.68852 4504 ft 271 kts 198°
2026-04-11 12:04 -17.68830 178.68242 4509 ft 271 kts 198°
2026-04-11 12:05 -17.70623 178.67634 4501 ft 271 kts 198°
2026-04-11 12:05 -17.72414 178.67025 4512 ft 271 kts 198°
2026-04-11 12:05 -17.74206 178.66416 4510 ft 271 kts 198°
2026-04-11 12:05 -17.75998 178.65806 4509 ft 271 kts 198°
2026-04-11 12:06 -17.77791 178.65196 4509 ft 271 kts 198°
2026-04-11 12:06 -17.79581 178.64588 4510 ft 271 kts 199°
2026-04-11 12:06 -17.81412 178.64148 4508 ft 271 kts 184°
2026-04-11 12:06 -17.83267 178.64173 4502 ft 271 kts 177°
2026-04-11 12:07 -17.85151 178.64265 4506 ft 271 kts 177°
2026-04-11 12:07 -17.87043 178.64363 4213 ft 271 kts 177°
2026-04-11 12:07 -17.88924 178.64459 3870 ft 270 kts 176°
2026-04-11 12:07 -17.90788 178.64643 3538 ft 268 kts 172°
2026-04-11 12:08 -17.92635 178.64919 3215 ft 267 kts 171°
2026-04-11 12:08 -17.94472 178.65197 2880 ft 266 kts 171°
2026-04-11 12:08 -17.96300 178.65474 2551 ft 265 kts 171°
2026-04-11 12:08 -17.98118 178.65747 2213 ft 263 kts 171°
2026-04-11 12:09 -17.99931 178.65877 1875 ft 260 kts 187°
2026-04-11 12:09 -18.01608 178.65257 1538 ft 254 kts 207°
2026-04-11 12:09 -18.03153 178.64494 1503 ft 232 kts 200°
2026-04-11 12:09 -18.04590 178.63990 1487 ft 206 kts 206°
2026-04-11 12:10 -18.05576 178.63082 1497 ft 176 kts 236°
2026-04-11 12:10 -18.06045 178.62009 1332 ft 154 kts 259°
2026-04-11 12:10 -18.06101 178.60953 1107 ft 134 kts 280°
2026-04-11 12:10 -18.05836 178.60046 784 ft 126 kts 295°
2026-04-11 12:11 -18.05470 178.59222 532 ft 122 kts 298°
2026-04-11 12:11 -18.05161 178.58409 353 ft 118 kts 290°
2026-04-11 12:11 -18.04893 178.57616 207 ft 113 kts 291°
2026-04-11 12:11 -18.04636 178.56838 45 ft 113 kts 289°
2026-04-11 12:12 -18.04396 178.56122 13 ft 81 kts 290°
2026-04-11 12:12 -18.04305 178.55888 17 ft 11 kts 293°
2026-04-11 12:12 -18.04332 178.55937 16 ft 21 kts 108°
2026-04-11 12:12 -18.04446 178.56003 15 ft 25 kts 201°
2026-04-11 12:13 -18.04551 178.55969 15 ft 9 kts 156°
2026-04-11 12:13 -18.04550 178.55981 15 ft 0 kts 16°